Theta_e
315 316 313 313 312 315 312 308 305 299 300 306 308 314 313 311 312 313 312 314 317 317 318 318 318 319 319 320 322 325 327 328 331 333 336 339 341 343
314 315 313 311 312 312 314 310 308 304 299 305 307 312 311 312 314 315 314 318 318 318 319 320 319 319 320 321 322 324 326 327 328 330 333 337 337 338
313 311 313 313 309 308 310 310 307 309 303 306 311 314 312 311 314 315 317 316 316 318 319 319 320 320 320 321 322 324 326 325 328 331 333 333 334 335
311 311 310 307 310 307 308 304 305 310 308 305 310 312 312 311 311 313 314 315 316 318 317 317 316 315 315 314 315 319 320 320 323 327 329 330 332 333
310 309 309 308 306 307 308 303 304 308 313 309 308 311 313 310 308 310 312 313 318 317 317 318 317 316 315 313 314 312 310 313 315 317 322 325 326 328
310 310 308 306 305 306 306 306 304 306 308 307 307 308 308 308 307 305 305 313 311 316 318 316 316 317 316 315 314 312 310 308 309 311 313 313 315 318
309 309 308 307 306 306 303 304 305 304 305 307 307 306 306 305 302 304 304 310 311 313 312 314 316 318 316 315 313 312 311 309 308 308 308 307 308 309
306 307 307 307 305 305 303 304 305 305 305 304 306 304 305 306 306 304 303 304 306 312 311 310 314 314 313 312 308 307 309 307 308 307 307 306 305 304
304 303 305 304 304 302 301 303 306 306 306 307 306 306 306 308 307 304 303 302 306 310 311 308 315 311 313 311 306 306 305 305 306 305 307 307 307 305
305 305 305 305 297 299 299 301 303 305 306 304 307 308 308 308 308 307 305 303 309 309 310 304 309 310 313 312 305 304 304 303 303 305 303 303 302 302
303 304 302 301 296 296 299 298 300 302 303 303 304 303 301 300 302 308 302 300 304 306 305 307 306 306 309 309 309 304 303 302 303 303 303 303 304 305
301 301 300 297 295 295 298 297 295 296 299 301 304 307 306 309 304 308 303 299 299 303 304 304 305 306 302 308 311 313 311 303 302 302 304 305 304 317
299 299 301 297 295 295 294 298 298 296 298 300 301 304 307 308 309 310 307 302 300 300 304 304 306 305 303 302 306 312 311 311 311 310 301 301 302 308
298 299 299 295 294 294 296 295 294 295 297 296 297 298 300 302 305 307 310 307 305 303 305 305 306 306 303 302 302 308 313 313 313 313 312 304 302 301
298 297 295 294 294 296 296 295 296 296 295 293 293 295 297 299 304 307 310 310 308 307 307 307 308 307 307 304 303 306 307 309 312 312 312 314 313 313
297 298 296 295 295 296 295 296 296 296 294 292 292 294 296 296 299 302 302 305 305 306 312 308 309 310 306 308 307 306 309 308 313 312 313 314 314 314
294 297 296 295 294 293 293 294 295 295 293 294 293 294 294 294 296 298 300 302 302 303 305 309 307 306 306 307 304 308 310 311 313 313 312 311 311 314
294 292 292 292 292 292 291 293 293 293 293 294 294 294 294 294 294 296 298 298 298 299 301 304 306 304 303 305 304 306 308 310 311 310 310 307 307 310
291 290 290 290 290 290 291 292 292 293 294 294 294 294 296 294 293 294 296 296 296 298 300 301 305 304 301 298 303 300 306 308 307 307 307 306 307 305
291 290 289 289 290 290 290 291 292 293 293 293 293 294 296 294 292 293 294 295 295 297 298 300 301 303 302 299 300 299 294 306 307 304 301 300 298 298
291 290 290 290 290 290 290 291 291 292 292 293 293 294 295 293 292 293 293 290 291 297 297 299 301 291 303 304 299 298 298 297 302 304 305 303 301 302
291 291 291 291 291 290 290 290 290 291 292 293 294 294 295 293 291 292 293 293 295 296 296 299 302 303 305 303 299 297 296 298 299 297 298 299 301 299
291 291 291 292 291 291 291 291 290 290 290 291 292 292 292 291 292 292 293 294 296 296 297 299 304 305 303 299 296 296 296 296 295 294 294 296 297 297
Wind_Speed
10 9 7 8 10 6 6 8 6 6 9 7 13 11 10 10 14 12 12 20 24 24 25 26 26 25 27 26 24 25 25 25 25 24 22 25 21 26
8 9 8 8 9 9 7 6 7 7 7 7 12 15 13 11 14 12 10 18 15 17 19 19 23 23 23 22 24 23 24 25 25 25 27 24 18 20
9 10 11 9 8 10 7 9 9 7 7 7 11 12 11 13 11 8 7 7 8 15 18 11 7 10 15 15 16 17 18 13 23 21 20 17 15 16
12 10 11 8 10 9 9 10 11 11 7 12 12 10 9 11 12 8 6 5 7 15 19 13 10 8 6 3 3 8 9 8 4 11 15 15 14 12
11 9 8 8 10 10 11 8 10 10 10 8 10 8 8 10 11 10 9 6 6 12 15 12 8 12 13 12 7 6 1 8 8 8 11 11 11 10
11 10 9 9 10 13 12 9 9 12 10 8 9 10 8 9 7 9 10 3 6 8 7 6 10 13 16 16 16 14 11 4 8 9 9 8 7 7
10 10 7 11 11 12 10 14 13 9 10 11 9 10 10 11 10 9 7 8 3 3 3 4 6 8 11 15 15 17 15 16 15 15 14 14 14 13
9 10 9 10 11 14 20 22 20 9 12 9 10 7 10 10 10 9 8 6 4 3 6 2 7 8 9 9 17 18 18 21 20 20 22 19 18 16
10 9 10 8 9 14 19 22 16 13 11 10 10 10 11 11 9 11 10 8 3 3 3 4 4 6 9 10 17 17 18 19 20 19 20 21 19 17
11 11 10 11 10 13 16 17 15 13 6 9 10 11 10 10 9 7 9 8 3 2 3 3 5 6 6 9 16 16 16 17 18 18 20 21 20 19
13 13 8 7 9 10 15 17 15 13 12 15 13 12 12 11 7 8 6 7 3 2 5 2 1 3 5 6 8 15 15 14 16 17 14 13 18 18
10 10 4 4 7 10 13 13 11 13 16 15 13 10 8 6 9 2 3 5 3 1 4 1 2 1 2 3 3 6 8 12 13 14 14 15 10 11
12 10 8 6 17 17 12 12 12 14 16 11 9 8 7 6 5 5 3 1 3 2 2 2 2 1 3 2 2 3 6 5 5 8 14 13 16 9
12 9 11 19 18 13 13 7 14 13 6 9 8 8 8 8 8 10 5 3 3 4 5 3 1 2 3 2 1 2 3 3 2 5 6 6 12 13
10 14 19 11 10 10 8 11 12 5 7 7 8 7 8 10 10 7 5 4 4 4 1 3 2 3 2 3 3 3 3 1 3 4 3 4 4 4
14 9 10 9 11 9 4 7 6 6 7 5 7 7 7 7 7 8 7 6 3 2 6 3 3 3 2 3 3 5 4 3 4 6 4 4 4 4
15 8 7 9 8 7 7 8 8 6 6 5 6 5 6 6 5 6 6 6 4 5 3 4 6 6 5 3 2 1 3 7 5 6 5 6 4 4
9 9 9 9 9 9 9 8 6 7 6 5 5 5 4 5 5 6 4 5 5 4 3 5 2 6 2 6 15 4 4 5 6 6 4 5 6 7
5 5 6 7 8 8 8 8 8 7 7 5 6 6 5 4 5 5 4 4 3 3 2 3 4 1 4 3 3 18 4 4 4 5 4 3 2 7
5 7 7 7 6 6 7 7 7 8 7 6 6 6 5 4 4 4 4 4 4 3 2 2 2 1 3 2 4 3 16 2 4 6 3 3 5 4
8 8 7 7 7 7 6 6 7 7 7 7 6 5 5 4 4 4 4 5 4 2 3 1 1 1 1 4 5 3 5 17 12 4 4 4 2 2
8 8 8 7 7 7 6 6 5 6 6 6 6 6 4 3 4 4 4 4 3 3 2 3 3 3 3 1 8 6 4 5 15 22 18 8 1 1
9 9 9 8 7 7 7 6 5 6 5 5 5 5 4 4 4 4 4 4 3 2 2 3 3 3 6 5 7 5 9 5 3 7 8 13 14 14
Wind_Direction
303 313 309 317 327 311 299 313 293 310 308 310 318 319 315 303 295 292 287 285 287 282 275 268 262 259 256 254 254 254 253 251 250 247 247 235 217 204
307 309 307 324 315 323 318 316 310 287 291 306 301 308 309 306 297 296 288 299 306 304 311 276 250 247 247 251 253 252 252 250 246 250 232 223 203 198
306 317 318 329 327 324 338 334 309 296 294 299 298 308 315 329 328 306 304 314 317 327 343 324 267 246 241 242 243 244 238 273 246 216 204 197 182 187
317 315 327 348 326 326 326 329 311 301 307 303 310 335 1 342 327 324 317 313 319 346 3 20 47 51 48 11 307 252 236 256 146 182 178 168 170 168
322 315 326 319 326 328 329 323 316 312 311 292 313 342 345 357 340 341 331 319 327 346 358 1 41 64 52 42 32 28 312 206 158 120 113 121 128 141
314 314 331 341 323 329 322 320 313 320 315 317 318 335 349 6 344 340 339 328 329 332 307 347 321 55 45 35 36 37 40 70 170 141 127 122 135 137
311 317 332 315 342 323 335 325 318 305 309 322 329 337 350 354 353 340 324 324 305 332 8 334 16 35 30 24 25 41 50 55 82 99 101 100 92 91
317 326 327 320 337 357 331 320 305 292 304 320 329 336 334 354 350 342 334 339 333 24 330 1 46 42 45 25 23 37 49 58 67 79 85 84 83 80
333 324 314 330 0 349 334 315 312 304 245 308 322 333 329 345 339 336 343 318 298 354 335 9 30 78 58 38 27 41 51 58 62 68 86 87 85 79
320 323 325 326 32 353 331 322 321 315 7 324 326 316 324 326 317 331 315 308 272 30 343 58 358 42 71 69 35 42 49 65 70 74 74 81 79 74
334 324 341 334 358 333 329 322 327 318 329 331 302 280 266 261 262 317 349 348 315 39 5 81 50 52 37 55 66 53 49 52 66 65 55 76 96 82
324 315 291 285 315 334 329 322 321 322 322 315 307 316 272 302 190 91 4 351 327 343 21 5 136 150 80 353 10 97 85 53 53 54 46 38 31 96
317 317 321 327 342 326 308 309 316 316 316 308 316 318 325 334 346 9 106 53 334 312 318 298 155 90 69 103 12 73 106 111 96 93 70 43 49 59
315 317 320 324 316 308 303 328 297 299 324 333 331 335 344 342 343 335 324 178 223 258 304 305 84 120 127 96 101 33 67 124 126 100 98 91 68 60
322 316 302 316 309 289 288 305 298 326 338 336 326 324 329 320 311 323 336 300 221 213 280 354 58 115 128 114 133 138 139 91 86 71 53 82 116 106
333 324 311 312 307 309 323 322 329 343 342 321 319 322 325 317 329 345 333 333 302 239 127 108 66 55 81 95 131 159 174 147 144 144 146 103 90 67
320 333 349 343 352 340 338 344 346 342 349 339 322 324 326 327 328 335 342 338 352 8 18 122 87 68 47 82 112 28 143 126 117 125 123 106 82 77
341 344 339 339 336 339 339 336 334 333 346 332 324 317 324 334 333 323 356 352 349 2 354 341 148 132 78 100 30 107 62 105 107 100 92 111 109 86
339 331 328 328 328 327 325 328 329 327 329 325 329 315 310 349 334 334 348 339 347 337 4 320 320 248 161 119 69 26 117 120 106 110 72 11 90 65
330 326 323 321 320 317 319 320 318 321 326 328 319 312 310 355 330 336 341 340 338 328 304 283 318 27 52 101 108 67 20 123 124 112 114 80 86 110
327 321 314 311 313 311 307 308 308 310 315 307 305 310 319 356 320 321 323 321 316 297 319 174 108 167 279 98 103 83 43 45 58 106 127 116 127 147
319 316 316 311 304 303 302 299 300 304 307 305 303 304 322 341 306 310 313 316 316 322 293 313 188 229 150 74 125 113 103 72 66 62 52 48 9 203
322 317 316 310 306 306 302 297 292 289 286 290 298 305 305 292 290 291 289 287 277 276 286 288 117 88 78 100 115 103 110 88 70 71 52 44 69 73